Location: St Paul
(33.9360°N, 83.4200°W)
Time: 04:16:47
(UTC-04:00)

NOSS 3-4 (A) - Pass Details

Date: 06 October 2017
Orbit: 939 x 1273 km, 63.4° (Epoch: 04 August)

Event Time Altitude Azimuth Distance (km) Brightness Sun altitude
Rises 21:42:51 0° 328° (NNW) 3,920 7.3 -32.1°
Reaches altitude 10° 21:45:26 10° 327° (NNW) 3,006 6.6 -32.6°
Enters shadow 21:52:30 79° 260° (W) 1,211 3.9 -34.0°
